Weather History for KHYA - December, 2013

Change the Weather History Date:

Tuesday, December 3, 2013

  Actual Average Record
Temperature  
Mean Temperature 40 °F -  
Max Temperature 44 °F 47 °F 59 °F (2012)
Min Temperature 35 °F 26 °F 9 °F (1976)
Degree Days  
Heating Degree Days 26    
Moisture  
Dew Point 38 °F    
Average Humidity 86    
Maximum Humidity 96    
Minimum Humidity 76    
Precipitation  
Precipitation 0.00 in - - ()
Sea Level Pressure  
Sea Level Pressure 29.86 in    
Wind  
Wind Speed 10 mph (NNW)    
Max Wind Speed 15 mph    
Max Gust Speed 25 mph    
Visibility 10 miles    
Events      
Averages and records for this station are not official NWS values.
T = Trace of Precipitation, MM = Missing Value Source: NWS Daily Summary

Daily Weather History Graph

Daily Weather History Graph

Search for Another Location

Airport or City:

Trip Planner

Search our weather history database for the weather conditions in past years. The results will help you decide how hot, cold, wet, or windy it might be!

Date:

Astronomy

Dec. 03, 2013 Rise Set
Actual Time 6:50 AM EST 4:11 PM EST
Civil Twilight 6:19 AM EST 4:42 PM EST
Nautical Twilight 5:45 AM EST 5:16 PM EST
Astronomical Twilight 5:11 AM EST 5:50 PM EST
Moon 7:16 AM EST (12/3) 5:11 PM EST (12/3)
Length of Visible Light 10h 22m
Length of Day
9h 20m
New Moon, 1% of the Moon is Illuminated
Dec 3
New Moon
Dec 9
First Quarter
Dec 17
Full
Dec 25
Last Quarter
Jan 1
New

Hourly Weather History & Observations

Time (EST) Temp. Windchill Dew Point Humidity Pressure Visibility Wind Dir Wind Speed Gust Speed Precip Events Conditions
12:56 AM 42.1 °F 36.6 °F 37.9 °F 85% 29.88 in 10.0 mi North 9.2 mph - N/A   Overcast
1:56 AM 42.1 °F 37.7 °F 37.9 °F 85% 29.88 in 10.0 mi NNE 6.9 mph - N/A   Overcast
2:56 AM 42.1 °F 37.1 °F 39.0 °F 89% 29.88 in 10.0 mi North 8.1 mph - N/A   Overcast
3:56 AM 42.1 °F 36.6 °F 39.0 °F 89% 29.86 in 10.0 mi North 9.2 mph - N/A   Overcast
4:56 AM 42.1 °F 36.6 °F 39.0 °F 89% 29.86 in 10.0 mi North 9.2 mph - N/A   Overcast
5:56 AM 42.1 °F 35.7 °F 39.0 °F 89% 29.85 in 10.0 mi North 11.5 mph - N/A   Overcast
6:56 AM 42.1 °F 36.6 °F 39.0 °F 89% 29.85 in 10.0 mi North 9.2 mph - N/A   Overcast
7:56 AM 42.1 °F 35.2 °F 39.0 °F 89% 29.85 in 10.0 mi North 12.7 mph 19.6 mph N/A   Overcast
8:56 AM 43.0 °F 36.4 °F 39.0 °F 86% 29.84 in 10.0 mi North 12.7 mph 23.0 mph N/A   Overcast
9:56 AM 43.0 °F 35.7 °F 39.9 °F 89% 29.83 in 10.0 mi North 15.0 mph 25.3 mph N/A   Overcast
10:56 AM 43.0 °F 35.7 °F 39.9 °F 89% 29.82 in 10.0 mi North 15.0 mph 21.9 mph N/A   Overcast
11:56 AM 43.0 °F 36.8 °F 39.0 °F 86% 29.82 in 10.0 mi North 11.5 mph - N/A   Overcast
12:56 PM 43.0 °F 35.7 °F 39.0 °F 86% 29.81 in 10.0 mi North 15.0 mph 24.2 mph N/A   Overcast
1:56 PM 43.0 °F 36.4 °F 39.0 °F 86% 29.81 in 10.0 mi North 12.7 mph - N/A   Overcast
2:56 PM 42.1 °F 35.2 °F 39.0 °F 89% 29.82 in 10.0 mi North 12.7 mph 20.7 mph N/A   Overcast
3:56 PM 42.1 °F 36.1 °F 39.0 °F 89% 29.83 in 10.0 mi North 10.4 mph 20.7 mph N/A   Overcast
4:21 PM 42.8 °F 36.6 °F 39.2 °F 87% 29.83 in 10.0 mi NNW 11.5 mph 19.6 mph N/A   Overcast
4:28 PM 42.8 °F 36.6 °F 39.2 °F 87% 29.83 in 10.0 mi NNW 11.5 mph 19.6 mph N/A   Overcast
4:56 PM 43.0 °F 37.2 °F 37.9 °F 82% 29.84 in 10.0 mi North 10.4 mph 20.7 mph N/A   Overcast
5:34 PM 44.6 °F 38.8 °F 37.4 °F 76% 29.84 in 10.0 mi NNW 11.5 mph 17.3 mph N/A   Scattered Clouds
5:56 PM 43.0 °F 38.2 °F 37.9 °F 82% 29.86 in 10.0 mi NNW 8.1 mph - N/A   Clear
6:56 PM 42.1 °F 40.2 °F 37.9 °F 85% 29.88 in 10.0 mi WNW 3.5 mph - N/A   Clear
7:56 PM 39.9 °F - 36.0 °F 86% 29.88 in 10.0 mi Calm Calm - N/A   Clear
8:56 PM 35.1 °F - 34.0 °F 96% 29.90 in 8.0 mi Calm Calm - N/A   Clear
9:56 PM 39.0 °F 34.8 °F 32.0 °F 76% 29.91 in 10.0 mi WNW 5.8 mph - N/A   Clear
10:56 PM 37.0 °F 32.4 °F 30.9 °F 79% 29.92 in 10.0 mi WNW 5.8 mph - N/A   Clear
11:56 PM 39.0 °F 34.0 °F 32.0 °F 76% 29.92 in 10.0 mi NW 6.9 mph - N/A   Clear